Time,TemperatureF,DewpointF,PressureIn,WindDirection,WindDirectionDegrees,WindSpeedMPH,WindSpeedGustMPH,Humidity,HourlyPrecipIn,Conditions,Clouds,dailyrainin,SoftwareType,DateUTC
2013-06-13 00:02:00,60.1,18.8,29.77,NNE,23,3.0,3.0,20,0.00,,,0.00,Wunderground PWS Mod,2013-06-13 06:02:00,
2013-06-13 00:08:00,59.9,18.7,29.77,NE,45,3.0,4.0,20,0.00,,,0.00,Wunderground PWS Mod,2013-06-13 06:08:00,
2013-06-13 00:13:00,59.6,19.6,29.77,ENE,63,4.0,4.0,21,0.00,,,0.00,Wunderground PWS Mod,2013-06-13 06:13:00,
2013-06-13 00:18:00,59.6,19.6,29.77,NE,45,3.0,4.0,21,0.00,,,0.00,Wunderground PWS Mod,2013-06-13 06:18:00,
2013-06-13 00:24:00,60.5,19.2,29.75,ENE,57,2.0,4.0,20,0.00,,,0.00,Wunderground PWS Mod,2013-06-13 06:24:00,
2013-06-13 00:29:00,61.3,18.6,29.75,ENE,66,2.0,3.0,19,0.00,,,0.00,Wunderground PWS Mod,2013-06-13 06:29:00,
2013-06-13 00:34:00,62.3,18.2,29.74,NE,43,3.0,5.0,18,0.00,,,0.00,Wunderground PWS Mod,2013-06-13 06:34:00,
2013-06-13 00:40:00,63.2,18.9,29.74,NE,49,4.0,4.0,18,0.00,,,0.00,Wunderground PWS Mod,2013-06-13 06:40:00,
2013-06-13 00:45:00,63.4,19.1,29.73,NE,51,2.0,4.0,18,0.00,,,0.00,Wunderground PWS Mod,2013-06-13 06:45:00,
2013-06-13 00:50:00,63.1,18.9,29.73,East,79,2.0,3.0,18,0.00,,,0.00,Wunderground PWS Mod,2013-06-13 06:50:00,
2013-06-13 00:56:00,62.4,19.5,29.73,East,79,3.0,3.0,19,0.00,,,0.00,Wunderground PWS Mod,2013-06-13 06:56:00,
2013-06-13 01:01:00,61.8,20.3,29.73,NNE,32,1.0,3.0,20,0.00,,,0.00,Wunderground PWS Mod,2013-06-13 07:01:00,
2013-06-13 01:06:00,61.3,18.6,29.73,NE,48,3.0,3.0,19,0.00,,,0.00,Wunderground PWS Mod,2013-06-13 07:06:00,
2013-06-13 01:12:00,61.6,18.9,29.73,ENE,70,2.0,3.0,19,0.00,,,0.00,Wunderground PWS Mod,2013-06-13 07:12:00,
2013-06-13 01:17:00,62.0,19.2,29.71,ENE,61,3.0,3.0,19,0.00,,,0.00,Wunderground PWS Mod,2013-06-13 07:17:00,
2013-06-13 01:23:00,61.6,18.9,29.71,ENE,75,1.0,3.0,19,0.00,,,0.00,Wunderground PWS Mod,2013-06-13 07:23:00,
2013-06-13 01:28:00,61.6,18.9,29.71,ENE,68,3.0,4.0,19,0.00,,,0.00,Wunderground PWS Mod,2013-06-13 07:28:00,
2013-06-13 01:33:00,61.6,18.9,29.71,ENE,68,2.0,3.0,19,0.00,,,0.00,Wunderground PWS Mod,2013-06-13 07:33:00,
2013-06-13 01:39:00,60.9,20.7,29.71,ENE,60,3.0,4.0,21,0.00,,,0.00,Wunderground PWS Mod,2013-06-13 07:39:00,
2013-06-13 01:44:00,60.4,20.2,29.71,NE,47,3.0,3.0,21,0.00,,,0.00,Wunderground PWS Mod,2013-06-13 07:44:00,
2013-06-13 01:49:00,60.1,20.0,29.72,ENE,66,2.0,4.0,21,0.00,,,0.00,Wunderground PWS Mod,2013-06-13 07:49:00,
2013-06-13 01:55:00,60.1,20.0,29.72,ENE,65,2.0,3.0,21,0.00,,,0.00,Wunderground PWS Mod,2013-06-13 07:55:00,
2013-06-13 02:00:00,60.1,20.0,29.72,ENE,68,4.0,4.0,21,0.00,,,0.00,Wunderground PWS Mod,2013-06-13 08:00:00,
2013-06-13 02:05:00,60.1,20.0,29.72,ENE,60,2.0,3.0,21,0.00,,,0.00,Wunderground PWS Mod,2013-06-13 08:05:00,
2013-06-13 02:10:00,59.9,19.8,29.72,East,83,2.0,4.0,21,0.00,,,0.00,Wunderground PWS Mod,2013-06-13 08:10:00,
2013-06-13 02:15:00,59.8,20.8,29.73,East,79,2.0,3.0,22,0.00,,,0.00,Wunderground PWS Mod,2013-06-13 08:15:00,
2013-06-13 02:20:00,59.9,19.8,29.73,ENE,65,2.0,2.0,21,0.00,,,0.00,Wunderground PWS Mod,2013-06-13 08:20:00,
2013-06-13 02:25:00,60.2,20.1,29.73,ENE,67,1.0,2.0,21,0.00,,,0.00,Wunderground PWS Mod,2013-06-13 08:25:00,
2013-06-13 02:30:00,60.4,19.1,29.73,NE,44,1.0,2.0,20,0.00,,,0.00,Wunderground PWS Mod,2013-06-13 08:30:00,
2013-06-13 02:35:00,61.2,19.8,29.73,NE,49,2.0,2.0,20,0.00,,,0.00,Wunderground PWS Mod,2013-06-13 08:35:00,
2013-06-13 02:40:00,62.0,19.2,29.73,ENE,65,2.0,4.0,19,0.00,,,0.00,Wunderground PWS Mod,2013-06-13 08:40:00,
2013-06-13 02:45:00,62.6,18.4,29.72,NE,50,2.0,2.0,18,0.00,,,0.00,Wunderground PWS Mod,2013-06-13 08:45:00,
2013-06-13 02:50:00,62.6,19.7,29.72,NE,42,1.0,2.0,19,0.00,,,0.00,Wunderground PWS Mod,2013-06-13 08:50:00,
2013-06-13 02:55:00,62.4,18.3,29.72,NE,41,1.0,2.0,18,0.00,,,0.00,Wunderground PWS Mod,2013-06-13 08:55:00,
2013-06-13 03:00:00,62.6,18.4,29.72,NNE,32,3.0,3.0,18,0.00,,,0.00,Wunderground PWS Mod,2013-06-13 09:00:00,
2013-06-13 03:05:00,62.4,19.5,29.72,NE,39,2.0,3.0,19,0.00,,,0.00,Wunderground PWS Mod,2013-06-13 09:05:00,
2013-06-13 03:10:00,62.0,19.2,29.72,NE,34,2.0,3.0,19,0.00,,,0.00,Wunderground PWS Mod,2013-06-13 09:10:00,
2013-06-13 03:15:00,61.5,20.0,29.73,NE,52,2.0,3.0,20,0.00,,,0.00,Wunderground PWS Mod,2013-06-13 09:15:00,
2013-06-13 03:20:00,60.9,19.5,29.73,NE,51,3.0,4.0,20,0.00,,,0.00,Wunderground PWS Mod,2013-06-13 09:20:00,
2013-06-13 03:25:00,60.9,19.5,29.73,ENE,75,3.0,3.0,20,0.00,,,0.00,Wunderground PWS Mod,2013-06-13 09:25:00,
2013-06-13 03:30:00,61.2,19.8,29.72,ENE,58,3.0,3.0,20,0.00,,,0.00,Wunderground PWS Mod,2013-06-13 09:30:00,
2013-06-13 03:35:00,61.2,19.8,29.72,East,86,1.0,3.0,20,0.00,,,0.00,Wunderground PWS Mod,2013-06-13 09:35:00,
2013-06-13 03:40:00,61.3,19.8,29.72,ENE,74,1.0,2.0,20,0.00,,,0.00,Wunderground PWS Mod,2013-06-13 09:40:00,
2013-06-13 03:45:00,61.2,19.8,29.73,ENE,63,2.0,2.0,20,0.00,,,0.00,Wunderground PWS Mod,2013-06-13 09:45:00,
2013-06-13 03:50:00,61.2,19.8,29.73,ENE,60,1.0,3.0,20,0.00,,,0.00,Wunderground PWS Mod,2013-06-13 09:50:00,
2013-06-13 03:55:00,61.0,19.6,29.73,ENE,60,2.0,2.0,20,0.00,,,0.00,Wunderground PWS Mod,2013-06-13 09:55:00,
2013-06-13 04:00:00,60.7,19.3,29.72,ENE,70,3.0,3.0,20,0.00,,,0.00,Wunderground PWS Mod,2013-06-13 10:00:00,
2013-06-13 04:05:00,60.4,19.1,29.72,NE,56,2.0,3.0,20,0.00,,,0.00,Wunderground PWS Mod,2013-06-13 10:05:00,
2013-06-13 04:10:00,60.1,20.0,29.72,NE,54,2.0,3.0,21,0.00,,,0.00,Wunderground PWS Mod,2013-06-13 10:10:00,
2013-06-13 04:15:00,59.9,18.7,29.71,NE,50,3.0,3.0,20,0.00,,,0.00,Wunderground PWS Mod,2013-06-13 10:15:00,
2013-06-13 04:20:00,60.1,18.8,29.71,ENE,60,3.0,3.0,20,0.00,,,0.00,Wunderground PWS Mod,2013-06-13 10:20:00,
2013-06-13 04:25:00,60.1,18.8,29.71,ENE,62,2.0,4.0,20,0.00,,,0.00,Wunderground PWS Mod,2013-06-13 10:25:00,
2013-06-13 04:30:00,59.6,19.6,29.71,East,79,3.0,4.0,21,0.00,,,0.00,Wunderground PWS Mod,2013-06-13 10:30:00,
2013-06-13 04:35:00,59.6,19.6,29.71,ENE,76,3.0,3.0,21,0.00,,,0.00,Wunderground PWS Mod,2013-06-13 10:35:00,
2013-06-13 04:40:00,59.8,19.7,29.71,ENE,68,2.0,4.0,21,0.00,,,0.00,Wunderground PWS Mod,2013-06-13 10:40:00,
2013-06-13 04:45:00,59.8,19.7,29.71,East,88,1.0,2.0,21,0.00,,,0.00,Wunderground PWS Mod,2013-06-13 10:45:00,
2013-06-13 04:51:00,59.6,19.6,29.71,ENE,69,2.0,3.0,21,0.00,,,0.00,Wunderground PWS Mod,2013-06-13 10:51:00,
2013-06-13 04:56:00,59.3,20.4,29.71,NE,54,3.0,3.0,22,0.00,,,0.00,Wunderground PWS Mod,2013-06-13 10:56:00,
2013-06-13 05:01:00,59.8,19.7,29.71,NNE,27,3.0,4.0,21,0.00,,,0.00,Wunderground PWS Mod,2013-06-13 11:01:00,
2013-06-13 05:06:00,60.7,19.3,29.71,NE,46,3.0,4.0,20,0.00,,,0.00,Wunderground PWS Mod,2013-06-13 11:06:00,
2013-06-13 05:11:00,61.6,18.9,29.71,NE,37,2.0,3.0,19,0.00,,,0.00,Wunderground PWS Mod,2013-06-13 11:11:00,
2013-06-13 05:16:00,61.8,19.0,29.72,NNE,33,1.0,3.0,19,0.00,,,0.00,Wunderground PWS Mod,2013-06-13 11:16:00,
2013-06-13 05:21:00,62.0,19.2,29.72,NNE,33,2.0,3.0,19,0.00,,,0.00,Wunderground PWS Mod,2013-06-13 11:21:00,
2013-06-13 05:26:00,61.6,20.1,29.72,NE,34,1.0,2.0,20,0.00,,,0.00,Wunderground PWS Mod,2013-06-13 11:26:00,
2013-06-13 05:31:00,61.3,19.8,29.72,NE,34,2.0,3.0,20,0.00,,,0.00,Wunderground PWS Mod,2013-06-13 11:31:00,
2013-06-13 05:36:00,61.0,19.6,29.72,NE,34,1.0,2.0,20,0.00,,,0.00,Wunderground PWS Mod,2013-06-13 11:36:00,
2013-06-13 05:41:00,60.7,19.3,29.72,NE,46,2.0,3.0,20,0.00,,,0.00,Wunderground PWS Mod,2013-06-13 11:41:00,
2013-06-13 05:46:00,60.5,19.2,29.72,NE,39,2.0,3.0,20,0.00,,,0.00,Wunderground PWS Mod,2013-06-13 11:46:00,
2013-06-13 05:51:00,60.1,20.0,29.72,NE,37,1.0,3.0,21,0.00,,,0.00,Wunderground PWS Mod,2013-06-13 11:51:00,
2013-06-13 05:56:00,59.8,19.7,29.72,NE,42,1.0,2.0,21,0.00,,,0.00,Wunderground PWS Mod,2013-06-13 11:56:00,
2013-06-13 06:01:00,59.5,19.5,29.74,NE,44,3.0,4.0,21,0.00,,,0.00,Wunderground PWS Mod,2013-06-13 12:01:00,
2013-06-13 06:06:00,59.0,20.2,29.74,East,82,1.0,3.0,22,0.00,,,0.00,Wunderground PWS Mod,2013-06-13 12:06:00,
2013-06-13 06:11:00,59.2,20.3,29.74,ENE,65,1.0,2.0,22,0.00,,,0.00,Wunderground PWS Mod,2013-06-13 12:11:00,
2013-06-13 06:16:00,59.6,19.6,29.74,NE,44,2.0,5.0,21,0.00,,,0.00,Wunderground PWS Mod,2013-06-13 12:16:00,
2013-06-13 06:21:00,59.9,20.9,29.74,ENE,65,4.0,4.0,22,0.00,,,0.00,Wunderground PWS Mod,2013-06-13 12:21:00,
2013-06-13 06:26:00,60.5,20.3,29.74,NE,51,3.0,3.0,21,0.00,,,0.00,Wunderground PWS Mod,2013-06-13 12:26:00,
2013-06-13 06:31:00,61.6,20.1,29.73,ENE,68,2.0,3.0,20,0.00,,,0.00,Wunderground PWS Mod,2013-06-13 12:31:00,
2013-06-13 06:36:00,62.3,20.7,29.73,East,80,2.0,3.0,20,0.00,,,0.00,Wunderground PWS Mod,2013-06-13 12:36:00,
2013-06-13 06:41:00,62.4,20.8,29.73,East,82,2.0,2.0,20,0.00,,,0.00,Wunderground PWS Mod,2013-06-13 12:41:00,
2013-06-13 06:46:00,62.7,22.2,29.72,East,84,2.0,3.0,21,0.00,,,0.00,Wunderground PWS Mod,2013-06-13 12:46:00,
2013-06-13 06:51:00,63.2,21.4,29.72,East,84,1.0,2.0,20,0.00,,,0.00,Wunderground PWS Mod,2013-06-13 12:51:00,
2013-06-13 06:56:00,63.9,20.8,29.72,East,96,1.0,4.0,19,0.00,,,0.00,Wunderground PWS Mod,2013-06-13 12:56:00,
2013-06-13 07:01:00,65.0,21.7,29.72,ENE,75,1.0,3.0,19,0.00,,,0.00,Wunderground PWS Mod,2013-06-13 13:01:00,
2013-06-13 07:06:00,66.0,23.7,29.72,East,94,2.0,3.0,20,0.00,,,0.00,Wunderground PWS Mod,2013-06-13 13:06:00,
2013-06-13 07:11:00,66.1,23.8,29.72,ENE,75,2.0,3.0,20,0.00,,,0.00,Wunderground PWS Mod,2013-06-13 13:11:00,
2013-06-13 07:16:00,66.6,24.2,29.74,East,81,1.0,3.0,20,0.00,,,0.00,Wunderground PWS Mod,2013-06-13 13:16:00,
2013-06-13 07:21:00,66.8,24.4,29.74,SW,226,4.0,4.0,20,0.00,,,0.00,Wunderground PWS Mod,2013-06-13 13:21:00,
2013-06-13 07:26:00,67.3,23.6,29.74,SSE,160,2.0,3.0,19,0.00,,,0.00,Wunderground PWS Mod,2013-06-13 13:26:00,
2013-06-13 07:31:00,67.9,22.8,29.74,SW,236,2.0,5.0,18,0.00,,,0.00,Wunderground PWS Mod,2013-06-13 13:31:00,
2013-06-13 07:36:00,68.1,24.2,29.74,South,181,2.0,2.0,19,0.00,,,0.00,Wunderground PWS Mod,2013-06-13 13:36:00,
2013-06-13 07:41:00,68.3,24.4,29.74,SSW,194,0.0,2.0,19,0.00,,,0.00,Wunderground PWS Mod,2013-06-13 13:41:00,
2013-06-13 07:46:00,68.4,25.7,29.74,SSW,205,1.0,2.0,20,0.00,,,0.00,Wunderground PWS Mod,2013-06-13 13:46:00,
2013-06-13 07:51:00,68.4,25.7,29.74,SSW,205,0.0,1.0,20,0.00,,,0.00,Wunderground PWS Mod,2013-06-13 13:51:00,
2013-06-13 07:56:00,69.4,26.6,29.74,SSW,205,1.0,1.0,20,0.00,,,0.00,Wunderground PWS Mod,2013-06-13 13:56:00,
2013-06-13 08:01:00,70.9,25.2,29.73,South,178,0.0,2.0,18,0.00,,,0.00,Wunderground PWS Mod,2013-06-13 14:01:00,
2013-06-13 08:06:00,71.8,26.0,29.73,South,178,1.0,2.0,18,0.00,,,0.00,Wunderground PWS Mod,2013-06-13 14:06:00,
2013-06-13 08:11:00,72.3,26.4,29.73,ESE,120,1.0,2.0,18,0.00,,,0.00,Wunderground PWS Mod,2013-06-13 14:11:00,
2013-06-13 08:16:00,73.0,25.6,29.79,SSE,148,2.0,3.0,17,0.00,,,0.00,Wunderground PWS Mod,2013-06-13 14:16:00,
2013-06-13 08:21:00,73.9,26.3,29.79,SSE,149,0.0,2.0,17,0.00,,,0.00,Wunderground PWS Mod,2013-06-13 14:21:00,
2013-06-13 08:26:00,74.7,28.3,29.79,SSE,150,1.0,2.0,18,0.00,,,0.00,Wunderground PWS Mod,2013-06-13 14:26:00,
2013-06-13 08:31:00,75.6,24.7,29.78,South,183,4.0,4.0,15,0.00,,,0.00,Wunderground PWS Mod,2013-06-13 14:31:00,
2013-06-13 08:36:00,76.1,23.4,29.78,South,170,4.0,6.0,14,0.00,,,0.00,Wunderground PWS Mod,2013-06-13 14:36:00,
2013-06-13 08:41:00,76.3,23.6,29.78,SSW,207,4.0,5.0,14,0.00,,,0.00,Wunderground PWS Mod,2013-06-13 14:41:00,
2013-06-13 08:46:00,76.8,27.2,29.77,SSW,203,4.0,4.0,16,0.00,,,0.00,Wunderground PWS Mod,2013-06-13 14:46:00,
2013-06-13 08:51:00,77.2,25.9,29.77,SSE,155,2.0,6.0,15,0.00,,,0.00,Wunderground PWS Mod,2013-06-13 14:51:00,
2013-06-13 08:56:00,78.1,23.2,29.77,South,169,5.0,7.0,13,0.00,,,0.00,Wunderground PWS Mod,2013-06-13 14:56:00,
2013-06-13 09:01:00,78.6,21.7,29.75,South,190,7.0,7.0,12,0.00,,,0.00,Wunderground PWS Mod,2013-06-13 15:01:00,
2013-06-13 09:06:00,78.5,21.6,29.75,SSE,163,7.0,8.0,12,0.00,,,0.00,Wunderground PWS Mod,2013-06-13 15:06:00,
2013-06-13 09:11:00,78.8,23.8,29.75,South,180,4.0,7.0,13,0.00,,,0.00,Wunderground PWS Mod,2013-06-13 15:11:00,
2013-06-13 09:16:00,78.6,23.6,29.77,South,187,4.0,4.0,13,0.00,,,0.00,Wunderground PWS Mod,2013-06-13 15:16:00,
2013-06-13 09:21:00,78.5,23.5,29.77,SSW,210,6.0,8.0,13,0.00,,,0.00,Wunderground PWS Mod,2013-06-13 15:21:00,
2013-06-13 09:26:00,79.2,22.2,29.77,South,169,6.0,10.0,12,0.00,,,0.00,Wunderground PWS Mod,2013-06-13 15:26:00,
2013-06-13 09:31:00,79.9,22.7,29.76,South,173,6.0,7.0,12,0.00,,,0.00,Wunderground PWS Mod,2013-06-13 15:31:00,
2013-06-13 09:36:00,80.3,24.9,29.76,SSW,200,3.0,9.0,13,0.00,,,0.00,Wunderground PWS Mod,2013-06-13 15:36:00,
2013-06-13 09:41:00,80.9,25.4,29.76,SSW,193,4.0,9.0,13,0.00,,,0.00,Wunderground PWS Mod,2013-06-13 15:41:00,
2013-06-13 09:46:00,81.1,25.6,29.75,SSE,165,4.0,7.0,13,0.00,,,0.00,Wunderground PWS Mod,2013-06-13 15:46:00,
2013-06-13 09:51:00,80.9,23.5,29.75,SSE,149,3.0,7.0,12,0.00,,,0.00,Wunderground PWS Mod,2013-06-13 15:51:00,
2013-06-13 09:56:00,81.1,23.7,29.75,SSW,205,7.0,10.0,12,0.00,,,0.00,Wunderground PWS Mod,2013-06-13 15:56:00,
2013-06-13 10:01:00,81.1,25.6,29.75,SSW,200,3.0,10.0,13,0.00,,,0.00,Wunderground PWS Mod,2013-06-13 16:01:00,
2013-06-13 10:06:00,81.2,23.7,29.75,SW,221,9.0,13.0,12,0.00,,,0.00,Wunderground PWS Mod,2013-06-13 16:06:00,
2013-06-13 10:11:00,81.8,24.2,29.75,WSW,239,7.0,12.0,12,0.00,,,0.00,Wunderground PWS Mod,2013-06-13 16:11:00,
2013-06-13 10:16:00,81.8,24.2,29.77,SW,226,6.0,9.0,12,0.00,,,0.00,Wunderground PWS Mod,2013-06-13 16:16:00,
2013-06-13 10:21:00,82.6,24.8,29.77,South,184,6.0,11.0,12,0.00,,,0.00,Wunderground PWS Mod,2013-06-13 16:21:00,
2013-06-13 10:26:00,83.4,23.4,29.77,SW,223,12.0,16.0,11,0.00,,,0.00,Wunderground PWS Mod,2013-06-13 16:26:00,
2013-06-13 10:31:00,83.4,25.4,29.76,South,173,2.0,13.0,12,0.00,,,0.00,Wunderground PWS Mod,2013-06-13 16:31:00,
2013-06-13 10:36:00,83.6,25.6,29.76,South,185,3.0,11.0,12,0.00,,,0.00,Wunderground PWS Mod,2013-06-13 16:36:00,
2013-06-13 10:41:00,83.4,25.4,29.76,WSW,257,4.0,14.0,12,0.00,,,0.00,Wunderground PWS Mod,2013-06-13 16:41:00,
2013-06-13 10:47:00,83.2,25.3,29.76,South,191,7.0,10.0,12,0.00,,,0.00,Wunderground PWS Mod,2013-06-13 16:47:00,
2013-06-13 10:52:00,82.2,24.5,29.76,SSW,205,13.0,13.0,12,0.00,,,0.00,Wunderground PWS Mod,2013-06-13 16:52:00,
2013-06-13 10:57:00,82.6,24.8,29.76,South,188,6.0,14.0,12,0.00,,,0.00,Wunderground PWS Mod,2013-06-13 16:57:00,
2013-06-13 11:02:00,82.4,24.7,29.76,South,187,6.0,13.0,12,0.00,,,0.00,Wunderground PWS Mod,2013-06-13 17:02:00,
2013-06-13 11:07:00,82.4,24.7,29.76,SSW,199,10.0,16.0,12,0.00,,,0.00,Wunderground PWS Mod,2013-06-13 17:07:00,
2013-06-13 11:12:00,82.2,24.5,29.76,South,186,10.0,13.0,12,0.00,,,0.00,Wunderground PWS Mod,2013-06-13 17:12:00,
2013-06-13 11:17:00,82.4,24.7,29.77,SSE,158,7.0,11.0,12,0.00,,,0.00,Wunderground PWS Mod,2013-06-13 17:17:00,
2013-06-13 11:22:00,82.8,25.0,29.77,SSW,203,10.0,10.0,12,0.00,,,0.00,Wunderground PWS Mod,2013-06-13 17:22:00,
2013-06-13 11:27:00,82.8,25.0,29.77,South,186,5.0,13.0,12,0.00,,,0.00,Wunderground PWS Mod,2013-06-13 17:27:00,
2013-06-13 11:32:00,83.2,23.2,29.77,South,181,4.0,14.0,11,0.00,,,0.00,Wunderground PWS Mod,2013-06-13 17:32:00,
2013-06-13 11:37:00,83.8,23.7,29.77,SW,227,4.0,10.0,11,0.00,,,0.00,Wunderground PWS Mod,2013-06-13 17:37:00,
2013-06-13 11:42:00,84.0,23.8,29.77,South,176,14.0,14.0,11,0.00,,,0.00,Wunderground PWS Mod,2013-06-13 17:42:00,
2013-06-13 11:47:00,84.5,26.3,29.76,SSW,213,5.0,12.0,12,0.00,,,0.00,Wunderground PWS Mod,2013-06-13 17:47:00,
2013-06-13 11:52:00,86.3,20.8,29.76,SSE,158,3.0,12.0,9,0.00,,,0.00,Wunderground PWS Mod,2013-06-13 17:52:00,
2013-06-13 11:57:00,87.0,18.6,29.76,SSW,208,5.0,11.0,8,0.00,,,0.00,Wunderground PWS Mod,2013-06-13 17:57:00,
2013-06-13 12:02:00,87.4,21.6,29.74,SW,227,12.0,16.0,9,0.00,,,0.00,Wunderground PWS Mod,2013-06-13 18:02:00,
2013-06-13 12:07:00,87.4,21.6,29.74,West,261,14.0,17.0,9,0.00,,,0.00,Wunderground PWS Mod,2013-06-13 18:07:00,
2013-06-13 12:12:00,87.0,21.3,29.74,South,172,9.0,16.0,9,0.00,,,0.00,Wunderground PWS Mod,2013-06-13 18:12:00,
2013-06-13 12:17:00,87.4,21.6,29.73,SSW,210,5.0,16.0,9,0.00,,,0.00,Wunderground PWS Mod,2013-06-13 18:17:00,
2013-06-13 12:22:00,87.4,18.9,29.73,SW,215,5.0,22.0,8,0.00,,,0.00,Wunderground PWS Mod,2013-06-13 18:22:00,
2013-06-13 12:27:00,87.0,18.6,29.73,SW,219,3.0,20.0,8,0.00,,,0.00,Wunderground PWS Mod,2013-06-13 18:27:00,
2013-06-13 12:32:00,86.7,21.1,29.73,SSW,196,13.0,14.0,9,0.00,,,0.00,Wunderground PWS Mod,2013-06-13 18:32:00,
2013-06-13 12:37:00,86.5,18.2,29.73,SSW,213,12.0,19.0,8,0.00,,,0.00,Wunderground PWS Mod,2013-06-13 18:37:00,
2013-06-13 12:42:00,87.2,21.5,29.73,SSW,198,10.0,13.0,9,0.00,,,0.00,Wunderground PWS Mod,2013-06-13 18:42:00,
2013-06-13 12:47:00,87.4,18.9,29.71,West,278,10.0,15.0,8,0.00,,,0.00,Wunderground PWS Mod,2013-06-13 18:47:00,
2013-06-13 12:52:00,87.2,18.7,29.71,SW,233,7.0,16.0,8,0.00,,,0.00,Wunderground PWS Mod,2013-06-13 18:52:00,
2013-06-13 12:57:00,86.3,20.8,29.71,SSE,162,9.0,17.0,9,0.00,,,0.00,Wunderground PWS Mod,2013-06-13 18:57:00,
2013-06-13 13:02:00,87.0,21.3,29.71,South,189,10.0,21.0,9,0.00,,,0.00,Wunderground PWS Mod,2013-06-13 19:02:00,
2013-06-13 13:07:00,87.4,21.6,29.71,SW,223,4.0,15.0,9,0.00,,,0.00,Wunderground PWS Mod,2013-06-13 19:07:00,
2013-06-13 13:12:00,86.3,20.8,29.71,SW,226,9.0,20.0,9,0.00,,,0.00,Wunderground PWS Mod,2013-06-13 19:12:00,
2013-06-13 13:17:00,85.7,20.3,29.72,WSW,240,16.0,18.0,9,0.00,,,0.00,Wunderground PWS Mod,2013-06-13 19:17:00,
2013-06-13 13:22:00,85.5,20.2,29.72,WSW,258,11.0,16.0,9,0.00,,,0.00,Wunderground PWS Mod,2013-06-13 19:22:00,
2013-06-13 13:27:00,84.5,19.4,29.72,SW,224,5.0,17.0,9,0.00,,,0.00,Wunderground PWS Mod,2013-06-13 19:27:00,
2013-06-13 13:35:00,84.1,21.6,29.72,SW,221,19.0,19.0,10,0.00,,,0.00,Wunderground PWS Mod,2013-06-13 19:35:00,
2013-06-13 20:47:00,77.0,30.2,29.56,South,171,7.0,10.0,18,0.00,,,0.00,Wunderground PWS Mod,2013-06-14 02:47:00,
2013-06-13 20:52:00,75.6,31.7,29.56,South,175,9.0,10.0,20,0.00,,,0.00,Wunderground PWS Mod,2013-06-14 02:52:00,
2013-06-13 20:57:00,75.4,30.2,29.56,SE,139,5.0,7.0,19,0.00,,,0.00,Wunderground PWS Mod,2013-06-14 02:57:00,
2013-06-13 21:02:00,75.3,30.2,29.56,SE,138,5.0,9.0,19,0.00,,,0.00,Wunderground PWS Mod,2013-06-14 03:02:00,
2013-06-13 21:07:00,74.7,29.7,29.56,SE,134,3.0,4.0,19,0.00,,,0.00,Wunderground PWS Mod,2013-06-14 03:07:00,
2013-06-13 21:12:00,74.2,30.5,29.56,ESE,122,2.0,4.0,20,0.00,,,0.00,Wunderground PWS Mod,2013-06-14 03:12:00,
2013-06-13 21:17:00,74.0,29.1,29.56,SSE,164,3.0,5.0,19,0.00,,,0.00,Wunderground PWS Mod,2013-06-14 03:17:00,
2013-06-13 21:22:00,73.9,29.0,29.56,SSE,157,2.0,6.0,19,0.00,,,0.00,Wunderground PWS Mod,2013-06-14 03:22:00,
2013-06-13 21:27:00,73.5,28.7,29.56,SSE,155,2.0,3.0,19,0.00,,,0.00,Wunderground PWS Mod,2013-06-14 03:27:00,
2013-06-13 21:32:00,73.0,28.3,29.56,SSE,156,3.0,4.0,19,0.00,,,0.00,Wunderground PWS Mod,2013-06-14 03:32:00,
2013-06-13 21:37:00,72.7,28.0,29.56,SSE,148,2.0,4.0,19,0.00,,,0.00,Wunderground PWS Mod,2013-06-14 03:37:00,
2013-06-13 21:42:00,72.3,27.7,29.56,SSE,167,1.0,4.0,19,0.00,,,0.00,Wunderground PWS Mod,2013-06-14 03:42:00,
2013-06-13 21:47:00,72.0,27.5,29.58,SE,146,2.0,3.0,19,0.00,,,0.00,Wunderground PWS Mod,2013-06-14 03:47:00,
2013-06-13 21:52:00,71.8,27.3,29.58,SSE,155,3.0,3.0,19,0.00,,,0.00,Wunderground PWS Mod,2013-06-14 03:52:00,
2013-06-13 21:57:00,71.6,27.1,29.58,SSE,152,2.0,4.0,19,0.00,,,0.00,Wunderground PWS Mod,2013-06-14 03:57:00,
2013-06-13 22:01:00,71.5,27.0,29.58,SSE,168,3.0,3.0,19,0.00,,,0.00,Wunderground PWS Mod,2013-06-14 04:01:00,
2013-06-13 22:06:00,71.3,26.9,29.58,SSE,149,2.0,4.0,19,0.00,,,0.00,Wunderground PWS Mod,2013-06-14 04:06:00,
2013-06-13 22:11:00,71.5,28.3,29.58,SE,138,3.0,5.0,20,0.00,,,0.00,Wunderground PWS Mod,2013-06-14 04:11:00,
2013-06-13 22:16:00,71.5,28.3,29.57,SSE,148,1.0,5.0,20,0.00,,,0.00,Wunderground PWS Mod,2013-06-14 04:16:00,
2013-06-13 22:21:00,71.1,28.0,29.57,SSE,166,3.0,4.0,20,0.00,,,0.00,Wunderground PWS Mod,2013-06-14 04:21:00,
2013-06-13 22:26:00,70.8,27.7,29.57,SSE,153,2.0,4.0,20,0.00,,,0.00,Wunderground PWS Mod,2013-06-14 04:26:00,
2013-06-13 22:31:00,70.3,28.5,29.59,SE,146,2.0,5.0,21,0.00,,,0.00,Wunderground PWS Mod,2013-06-14 04:31:00,
2013-06-13 22:36:00,70.1,28.3,29.59,East,99,3.0,4.0,21,0.00,,,0.00,Wunderground PWS Mod,2013-06-14 04:36:00,
2013-06-13 22:41:00,69.9,29.3,29.59,SSE,156,1.0,4.0,22,0.00,,,0.00,Wunderground PWS Mod,2013-06-14 04:41:00,
2013-06-13 22:46:00,69.8,29.2,29.59,SSE,162,3.0,5.0,22,0.00,,,0.00,Wunderground PWS Mod,2013-06-14 04:46:00,
2013-06-13 22:51:00,69.9,29.3,29.59,SSE,157,2.0,5.0,22,0.00,,,0.00,Wunderground PWS Mod,2013-06-14 04:51:00,
2013-06-13 22:56:00,69.9,28.2,29.59,SSE,160,2.0,5.0,21,0.00,,,0.00,Wunderground PWS Mod,2013-06-14 04:56:00,
2013-06-13 23:01:00,70.1,28.3,29.59,South,178,3.0,5.0,21,0.00,,,0.00,Wunderground PWS Mod,2013-06-14 05:01:00,
2013-06-13 23:06:00,69.8,28.1,29.59,South,172,2.0,3.0,21,0.00,,,0.00,Wunderground PWS Mod,2013-06-14 05:06:00,
2013-06-13 23:11:00,69.3,28.8,29.59,SSE,166,1.0,5.0,22,0.00,,,0.00,Wunderground PWS Mod,2013-06-14 05:11:00,
2013-06-13 23:16:00,68.9,28.5,29.57,SSE,154,1.0,3.0,22,0.00,,,0.00,Wunderground PWS Mod,2013-06-14 05:16:00,
2013-06-13 23:21:00,68.8,28.4,29.57,South,174,2.0,4.0,22,0.00,,,0.00,Wunderground PWS Mod,2013-06-14 05:21:00,
2013-06-13 23:26:00,68.6,28.2,29.57,South,172,2.0,3.0,22,0.00,,,0.00,Wunderground PWS Mod,2013-06-14 05:26:00,
2013-06-13 23:31:00,68.4,28.0,29.59,SSE,160,1.0,3.0,22,0.00,,,0.00,Wunderground PWS Mod,2013-06-14 05:31:00,
2013-06-13 23:36:00,68.1,27.8,29.59,SSE,153,2.0,3.0,22,0.00,,,0.00,Wunderground PWS Mod,2013-06-14 05:36:00,
2013-06-13 23:41:00,67.9,27.6,29.59,SSE,160,2.0,3.0,22,0.00,,,0.00,Wunderground PWS Mod,2013-06-14 05:41:00,
2013-06-13 23:46:00,67.8,27.5,29.59,SSE,161,1.0,2.0,22,0.00,,,0.00,Wunderground PWS Mod,2013-06-14 05:46:00,
2013-06-13 23:51:00,67.6,27.4,29.59,SSE,161,1.0,2.0,22,0.00,,,0.00,Wunderground PWS Mod,2013-06-14 05:51:00,
2013-06-13 23:56:00,67.4,27.2,29.59,SSE,165,2.0,2.0,22,0.00,,,0.00,Wunderground PWS Mod,2013-06-14 05:56:00,